Time,TemperatureF,DewpointF,PressureIn,WindDirection,WindDirectionDegrees,WindSpeedMPH,WindSpeedGustMPH,Humidity,HourlyPrecipIn,Conditions,Clouds,dailyrainin,SoftwareType,DateUTC
2013-10-12 00:13:00,61.0,54.0,29.93,ESE,121,3.0,8.0,78,0.00,,,0.00,,2013-10-12 05:13:00,
2013-10-12 00:23:00,60.0,53.0,29.93,ESE,108,2.0,6.0,79,0.00,,,0.00,,2013-10-12 05:23:00,
2013-10-12 00:43:00,60.0,54.0,29.93,SE,130,2.0,5.0,80,0.00,,,0.00,,2013-10-12 05:43:00,
2013-10-12 00:52:00,60.0,54.0,29.92,SE,138,2.0,5.0,82,0.00,,,0.00,,2013-10-12 05:52:00,
2013-10-12 01:12:00,60.0,54.0,29.91,SE,128,5.0,8.0,81,0.00,,,0.00,,2013-10-12 06:12:00,
2013-10-12 01:22:00,61.0,54.0,29.91,South,182,4.0,9.0,79,0.00,,,0.00,,2013-10-12 06:22:00,
2013-10-12 01:42:00,60.0,54.0,29.91,East,100,3.0,8.0,80,0.00,,,0.00,,2013-10-12 06:42:00,
2013-10-12 01:52:00,60.0,54.0,29.92,East,85,4.0,7.0,82,0.00,,,0.00,,2013-10-12 06:52:00,
2013-10-12 02:12:00,59.0,54.0,29.92,East,95,3.0,8.0,83,0.00,,,0.00,,2013-10-12 07:12:00,
2013-10-12 02:22:00,58.0,54.0,29.93,SE,130,2.0,5.0,85,0.00,,,0.00,,2013-10-12 07:22:00,
2013-10-12 02:42:00,58.0,54.0,29.93,ESE,113,1.0,5.0,86,0.00,,,0.00,,2013-10-12 07:42:00,
2013-10-12 02:52:00,58.0,54.0,29.93,South,188,0.0,3.0,86,0.00,,,0.00,,2013-10-12 07:52:00,
2013-10-12 03:12:00,57.0,53.0,29.93,East,95,0.0,3.0,87,0.00,,,0.00,,2013-10-12 08:12:00,
2013-10-12 03:22:00,57.0,53.0,29.92,ESE,123,0.0,12.0,87,0.00,,,0.00,,2013-10-12 08:22:00,
2013-10-12 03:42:00,57.0,53.0,29.93,SE,126,0.0,4.0,87,0.00,,,0.00,,2013-10-12 08:42:00,
2013-10-12 03:52:00,57.0,53.0,29.93,SW,216,0.0,3.0,88,0.00,,,0.00,,2013-10-12 08:52:00,
2013-10-12 04:11:00,57.0,53.0,29.93,SW,215,0.0,2.0,88,0.00,,,0.00,,2013-10-12 09:11:00,
2013-10-12 04:21:00,57.0,53.0,29.92,East,96,0.0,5.0,88,0.00,,,0.00,,2013-10-12 09:21:00,
2013-10-12 04:43:00,56.0,53.0,29.93,East,98,0.0,5.0,89,0.00,,,0.00,,2013-10-12 09:43:00,
2013-10-12 04:53:00,56.0,53.0,29.92,ESE,109,1.0,3.0,90,0.00,,,0.00,,2013-10-12 09:53:00,
2013-10-12 05:12:00,57.0,54.0,29.92,ESE,115,1.0,4.0,90,0.00,,,0.00,,2013-10-12 10:12:00,
2013-10-12 05:23:00,57.0,54.0,29.91,ESE,103,1.0,5.0,89,0.00,,,0.00,,2013-10-12 10:23:00,
2013-10-12 05:42:00,57.0,54.0,29.92,SE,139,0.0,5.0,90,0.00,,,0.00,,2013-10-12 10:42:00,
2013-10-12 05:52:00,57.0,54.0,29.92,SE,144,1.0,3.0,90,0.00,,,0.00,,2013-10-12 10:52:00,
2013-10-12 06:12:00,57.0,54.0,29.92,ESE,119,1.0,7.0,90,0.00,,,0.00,,2013-10-12 11:12:00,
2013-10-12 06:22:00,57.0,54.0,29.92,SE,136,1.0,5.0,90,0.00,,,0.00,,2013-10-12 11:22:00,
2013-10-12 06:42:00,57.0,54.0,29.92,SE,133,1.0,6.0,91,0.00,,,0.00,,2013-10-12 11:42:00,
2013-10-12 06:52:00,57.0,54.0,29.92,SSW,198,1.0,5.0,91,0.00,,,0.00,,2013-10-12 11:52:00,
2013-10-12 07:11:00,57.0,54.0,29.91,SSE,167,2.0,6.0,90,0.00,,,0.00,,2013-10-12 12:11:00,
2013-10-12 07:22:00,57.0,54.0,29.92,ESE,121,1.0,5.0,91,0.00,,,0.00,,2013-10-12 12:22:00,
2013-10-12 07:42:00,57.0,54.0,29.92,SE,144,2.0,6.0,91,0.00,,,0.00,,2013-10-12 12:42:00,
2013-10-12 07:52:00,57.0,54.0,29.93,ESE,115,3.0,5.0,91,0.00,,,0.00,,2013-10-12 12:52:00,
2013-10-12 08:11:00,58.0,55.0,29.93,ESE,121,2.0,7.0,90,0.00,,,0.00,,2013-10-12 13:11:00,
2013-10-12 08:21:00,60.0,56.0,29.94,SE,126,4.0,8.0,88,0.00,,,0.00,,2013-10-12 13:21:00,
2013-10-12 08:42:00,59.0,56.0,29.94,SSE,154,3.0,8.0,89,0.00,,,0.00,,2013-10-12 13:42:00,
2013-10-12 08:52:00,59.0,56.0,29.94,SE,130,3.0,9.0,90,0.00,,,0.00,,2013-10-12 13:52:00,
2013-10-12 09:12:00,59.0,57.0,29.94,South,184,1.0,6.0,92,0.00,,,0.00,,2013-10-12 14:12:00,
2013-10-12 09:21:00,60.0,58.0,29.93,SSE,159,3.0,6.0,92,0.00,,,0.00,,2013-10-12 14:21:00,
2013-10-12 09:42:00,61.0,58.0,29.94,South,180,2.0,5.0,91,0.00,,,0.00,,2013-10-12 14:42:00,
2013-10-12 09:52:00,61.0,58.0,29.94,SE,129,4.0,9.0,90,0.00,,,0.00,,2013-10-12 14:52:00,
2013-10-12 10:11:00,62.0,58.0,29.94,ESE,119,2.0,10.0,88,0.00,,,0.00,,2013-10-12 15:11:00,
2013-10-12 10:22:00,62.0,58.0,29.95,South,180,4.0,9.0,88,0.00,,,0.00,,2013-10-12 15:22:00,
2013-10-12 10:43:00,62.0,58.0,29.95,SW,223,2.0,6.0,88,0.00,,,0.00,,2013-10-12 15:43:00,
2013-10-12 10:53:00,62.0,58.0,29.96,SE,124,2.0,7.0,88,0.00,,,0.00,,2013-10-12 15:53:00,
2013-10-12 11:13:00,62.0,58.0,29.97,SSW,202,2.0,6.0,88,0.00,,,0.00,,2013-10-12 16:13:00,
2013-10-12 11:23:00,62.0,59.0,29.96,SW,225,3.0,6.0,89,0.00,,,0.00,,2013-10-12 16:23:00,
2013-10-12 11:43:00,62.0,59.0,29.97,SSW,213,1.0,5.0,89,0.00,,,0.00,,2013-10-12 16:43:00,
2013-10-12 11:53:00,62.0,59.0,29.96,South,184,0.0,5.0,89,0.00,,,0.00,,2013-10-12 16:53:00,
2013-10-12 12:13:00,62.0,59.0,29.97,WSW,248,3.0,7.0,90,0.02,,,0.02,,2013-10-12 17:13:00,
2013-10-12 12:23:00,61.0,59.0,29.97,SSE,154,4.0,9.0,93,0.46,,,0.46,,2013-10-12 17:23:00,
2013-10-12 12:42:00,61.0,60.0,29.97,South,189,2.0,5.0,95,0.57,,,0.57,,2013-10-12 17:42:00,
2013-10-12 12:53:00,62.0,61.0,29.97,SW,227,2.0,5.0,95,0.57,,,0.57,,2013-10-12 17:53:00,
2013-10-12 13:12:00,63.0,62.0,29.96,SSW,207,3.0,7.0,96,0.55,,,0.57,,2013-10-12 18:12:00,
2013-10-12 13:22:00,63.0,62.0,29.96,SSW,211,2.0,6.0,95,0.11,,,0.57,,2013-10-12 18:22:00,
2013-10-12 13:42:00,64.0,62.0,29.95,WSW,253,2.0,6.0,93,0.00,,,0.57,,2013-10-12 18:42:00,
2013-10-12 13:52:00,64.0,61.0,29.96,WSW,240,1.0,10.0,91,0.00,,,0.57,,2013-10-12 18:52:00,
2013-10-12 14:11:00,65.0,62.0,29.96,WSW,246,2.0,7.0,91,0.00,,,0.57,,2013-10-12 19:11:00,
2013-10-12 14:22:00,65.0,62.0,29.96,SW,221,3.0,9.0,90,0.00,,,0.57,,2013-10-12 19:22:00,
2013-10-12 14:42:00,65.0,62.0,29.96,West,265,2.0,6.0,89,0.00,,,0.57,,2013-10-12 19:42:00,
2013-10-12 14:52:00,65.0,61.0,29.97,WSW,252,3.0,9.0,87,0.00,,,0.57,,2013-10-12 19:52:00,
2013-10-12 15:12:00,65.0,60.0,29.97,West,281,5.0,9.0,83,0.00,,,0.57,,2013-10-12 20:12:00,
2013-10-12 15:22:00,67.0,60.0,29.98,NW,306,5.0,12.0,78,0.00,,,0.57,,2013-10-12 20:22:00,
2013-10-12 15:42:00,68.0,58.0,29.98,WSW,254,6.0,10.0,70,0.00,,,0.57,,2013-10-12 20:42:00,
2013-10-12 15:52:00,68.0,53.0,29.98,West,263,8.0,15.0,58,0.00,,,0.57,,2013-10-12 20:52:00,
2013-10-12 16:11:00,68.0,52.0,29.98,WSW,248,5.0,12.0,56,0.00,,,0.57,,2013-10-12 21:11:00,
2013-10-12 16:22:00,69.0,51.0,29.98,WSW,244,4.0,9.0,52,0.00,,,0.57,,2013-10-12 21:22:00,
2013-10-12 16:43:00,69.0,50.0,29.99,West,266,5.0,10.0,50,0.00,,,0.57,,2013-10-12 21:43:00,
2013-10-12 16:54:00,69.0,48.0,29.99,WSW,255,6.0,12.0,47,0.00,,,0.57,,2013-10-12 21:54:00,
2013-10-12 17:13:00,70.0,48.0,30.00,WSW,250,5.0,10.0,45,0.00,,,0.57,,2013-10-12 22:13:00,
2013-10-12 17:24:00,69.0,46.0,30.01,WNW,293,5.0,11.0,43,0.00,,,0.57,,2013-10-12 22:24:00,
2013-10-12 17:54:00,68.0,45.0,30.01,West,262,3.0,11.0,44,0.00,,,0.57,,2013-10-12 22:54:00,
2013-10-12 18:12:00,66.0,44.0,30.03,West,280,1.0,10.0,45,0.00,,,0.57,,2013-10-12 23:12:00,
2013-10-12 18:22:00,65.0,45.0,30.03,West,267,3.0,9.0,48,0.00,,,0.57,,2013-10-12 23:22:00,
2013-10-12 18:42:00,64.0,44.0,30.03,West,265,1.0,5.0,49,0.00,,,0.57,,2013-10-12 23:42:00,
2013-10-12 18:52:00,62.0,45.0,30.03,West,265,0.0,1.0,53,0.00,,,0.57,,2013-10-12 23:52:00,
2013-10-12 19:12:00,61.0,45.0,30.04,WNW,287,1.0,4.0,55,0.00,,,0.57,,2013-10-13 00:12:00,
2013-10-12 19:22:00,60.0,44.0,30.05,West,259,1.0,4.0,55,0.00,,,0.57,,2013-10-13 00:22:00,
2013-10-12 19:42:00,59.0,44.0,30.06,WSW,246,1.0,5.0,57,0.00,,,0.57,,2013-10-13 00:42:00,
2013-10-12 19:52:00,58.0,43.0,30.07,WSW,250,0.0,4.0,57,0.00,,,0.57,,2013-10-13 00:52:00,
2013-10-12 20:12:00,58.0,43.0,30.07,WSW,255,0.0,3.0,58,0.00,,,0.57,,2013-10-13 01:12:00,
2013-10-12 20:22:00,56.0,43.0,30.08,WSW,255,0.0,1.0,61,0.00,,,0.57,,2013-10-13 01:22:00,
2013-10-12 20:42:00,55.0,43.0,30.08,West,280,0.0,0.0,65,0.00,,,0.57,,2013-10-13 01:42:00,
2013-10-12 20:52:00,54.0,44.0,30.09,West,278,0.0,2.0,68,0.00,,,0.57,,2013-10-13 01:52:00,
2013-10-12 21:12:00,53.0,43.0,30.10,West,278,0.0,0.0,69,0.00,,,0.57,,2013-10-13 02:12:00,
2013-10-12 21:22:00,52.0,43.0,30.11,West,278,0.0,0.0,71,0.00,,,0.57,,2013-10-13 02:22:00,
2013-10-12 21:42:00,51.0,42.0,30.11,NW,309,0.0,2.0,72,0.00,,,0.57,,2013-10-13 02:42:00,
2013-10-12 21:52:00,51.0,43.0,30.11,NW,309,0.0,1.0,73,0.00,,,0.57,,2013-10-13 02:52:00,
2013-10-12 22:12:00,50.0,42.0,30.12,NW,309,0.0,1.0,74,0.00,,,0.57,,2013-10-13 03:12:00,
2013-10-12 22:22:00,50.0,42.0,30.13,NW,309,0.0,0.0,75,0.00,,,0.57,,2013-10-13 03:22:00,
2013-10-12 22:45:00,49.0,42.0,30.14,NW,309,0.0,1.0,76,0.00,,,0.57,,2013-10-13 03:45:00,
2013-10-12 22:54:00,49.0,42.0,30.14,NW,309,0.0,1.0,76,0.00,,,0.57,,2013-10-13 03:54:00,
2013-10-12 23:02:00,-999.0,-99.9,30.15,NW,309,0.0,0.0,-999,-99.99,,,-99.99,,2013-10-13 04:02:00,
2013-10-12 23:14:00,49.0,42.0,30.15,NW,309,0.0,0.0,77,0.00,,,0.57,,2013-10-13 04:14:00,
2013-10-12 23:23:00,49.0,42.0,30.16,NW,309,0.0,0.0,77,0.00,,,0.57,,2013-10-13 04:23:00,
2013-10-12 23:43:00,48.0,42.0,30.16,NW,309,0.0,0.0,79,0.00,,,0.57,,2013-10-13 04:43:00,
2013-10-12 23:54:00,47.0,41.0,30.16,NW,309,0.0,0.0,80,0.00,,,0.57,,2013-10-13 04:54:00,